| time (UTC) | temp F | wind direction | speed MPH | gust MPH | rain 1hr in | rain 24hr in | rain mn in | humidity % | barometer mb |
| 20260505022516 | 50 | 0.0 | 0.0 | 0.00 | 0.00 | 0.00 | 73 | 1013.0 | |
| 20260505021516 | 50 | 0 | 1.0 | 2.0 | 0.00 | 0.00 | 0.00 | 74 | 1013.0 |
| 20260505020516 | 50 | 0.0 | 1.0 | 0.00 | 0.00 | 0.00 | 73 | 1012.1 | |
| 20260505015516 | 51 | 0.0 | 0.0 | 0.00 | 0.00 | 0.00 | 72 | 1012.2 | |
| 20260505014516 | 51 | 0.0 | 0.0 | 0.00 | 0.00 | 0.00 | 70 | 1012.5 | |
| 20260505013516 | 52 | 0 | 1.0 | 3.0 | 0.00 | 0.00 | 0.00 | 71 | 1012.1 |
| 20260505012516 | 52 | 0 | 1.0 | 3.0 | 0.00 | 0.00 | 0.00 | 71 | 1012.1 |
| 20260505011516 | 52 | 0 | 2.0 | 5.0 | 0.00 | 0.00 | 0.00 | 70 | 1012.1 |
| 20260505010516 | 53 | 338 | 3.0 | 6.0 | 0.00 | 0.00 | 0.00 | 68 | 1011.3 |
| 20260505005536 | 53 | 45 | 4.0 | 8.0 | 0.00 | 0.00 | 0.00 | 67 | 1011.1 |
| 20260505004517 | 53 | 293 | 1.0 | 5.0 | 0.00 | 0.00 | 0.00 | 67 | 1011.1 |
| 20260505003516 | 53 | 23 | 3.0 | 7.0 | 0.00 | 0.00 | 0.00 | 64 | 1010.0 |
| 20260505002516 | 53 | 315 | 5.0 | 11.0 | 0.00 | 0.00 | 0.00 | 63 | 1010.0 |
| 20260505001516 | 55 | 315 | 6.0 | 14.0 | 0.00 | 0.00 | 0.00 | 57 | 1010.5 |
| 20260505000516 | 56 | 315 | 6.0 | 11.0 | 0.00 | 0.00 | 0.00 | 51 | 1010.1 |
| 20260504235516 | 56 | 0 | 4.0 | 10.0 | 0.00 | 0.00 | 0.00 | 50 | 1009.7 |
| 20260504234536 | 56 | 338 | 7.0 | 14.0 | 0.00 | 0.00 | 0.00 | 49 | 1009.2 |
| 20260504233516 | 57 | 0 | 9.0 | 17.0 | 0.00 | 0.00 | 0.00 | 48 | 1008.6 |
| 20260504232516 | 57 | 338 | 7.0 | 17.0 | 0.00 | 0.00 | 0.00 | 50 | 1008.7 |
| 20260504231516 | 58 | 338 | 10.0 | 15.0 | 0.00 | 0.00 | 0.00 | 46 | 1008.5 |
| 20260504230516 | 58 | 338 | 11.0 | 19.0 | 0.00 | 0.00 | 0.00 | 44 | 1008.5 |
| 20260504225516 | 58 | 338 | 11.0 | 19.0 | 0.00 | 0.00 | 0.00 | 43 | 1008.3 |
| 20260504224516 | 58 | 338 | 14.0 | 25.0 | 0.00 | 0.00 | 0.00 | 43 | 1008.5 |
| 20260504223516 | 59 | 338 | 14.0 | 26.0 | 0.00 | 0.00 | 0.00 | 41 | 1008.9 |
| 20260504222516 | 61 | 0 | 10.0 | 16.0 | 0.00 | 0.00 | 0.00 | 39 | 1009.3 |
| 20260504221516 | 61 | 338 | 12.0 | 25.0 | 0.00 | 0.00 | 0.00 | 37 | 1009.4 |
| 20260504220516 | 65 | 0 | 9.0 | 20.0 | 0.00 | 0.00 | 0.00 | 32 | 1010.1 |
| 20260504215516 | 65 | 68 | 5.0 | 9.0 | 0.00 | 0.00 | 0.00 | 30 | 1009.6 |
| 20260504214536 | 64 | 90 | 4.0 | 9.0 | 0.00 | 0.00 | 0.00 | 31 | 1009.2 |
| 20260504213516 | 64 | 90 | 3.0 | 8.0 | 0.00 | 0.00 | 0.00 | 31 | 1010.2 |
| 20260504212516 | 65 | 68 | 4.0 | 9.0 | 0.00 | 0.00 | 0.00 | 31 | 1010.2 |
| 20260504211517 | 65 | 90 | 6.0 | 15.0 | 0.00 | 0.00 | 0.00 | 32 | 1010.4 |
| 20260504210516 | 67 | 45 | 5.0 | 13.0 | 0.00 | 0.00 | 0.00 | 31 | 1011.0 |
| 20260504205516 | 66 | 338 | 9.0 | 15.0 | 0.00 | 0.00 | 0.00 | 31 | 1010.9 |
| 20260504204516 | 66 | 0 | 11.0 | 20.0 | 0.00 | 0.00 | 0.00 | 32 | 1011.0 |
| 20260504203556 | 66 | 0 | 9.0 | 15.0 | 0.00 | 0.00 | 0.00 | 32 | 1011.3 |
| 20260504202516 | 66 | 338 | 7.0 | 14.0 | 0.00 | 0.00 | 0.00 | 34 | 1011.6 |
| 20260504201516 | 66 | 0 | 8.0 | 18.0 | 0.00 | 0.00 | 0.00 | 32 | 1011.6 |
| 20260504200516 | 65 | 338 | 8.0 | 13.0 | 0.00 | 0.00 | 0.00 | 33 | 1012.1 |
| 20260504195516 | 65 | 45 | 7.0 | 17.0 | 0.00 | 0.00 | 0.00 | 32 | 1012.1 |
| 20260504194516 | 65 | 68 | 6.0 | 13.0 | 0.00 | 0.00 | 0.00 | 32 | 1012.0 |
| 20260504193516 | 66 | 45 | 9.0 | 16.0 | 0.00 | 0.00 | 0.00 | 32 | 1013.2 |
| 20260504192516 | 65 | 0 | 9.0 | 21.0 | 0.00 | 0.00 | 0.00 | 32 | 1013.1 |
| 20260504191516 | 63 | 0 | 10.0 | 19.0 | 0.00 | 0.00 | 0.00 | 35 | 1012.6 |
| 20260504190515 | 61 | 338 | 11.0 | 19.0 | 0.00 | 0.00 | 0.00 | 37 | 1012.4 |
| 20260504185535 | 61 | 23 | 7.0 | 19.0 | 0.00 | 0.00 | 0.00 | 36 | 1012.2 |
| 20260504184516 | 61 | 90 | 8.0 | 21.0 | 0.00 | 0.00 | 0.00 | 36 | 1012.4 |
| 20260504183516 | 62 | 315 | 7.0 | 19.0 | 0.00 | 0.00 | 0.00 | 34 | 1013.3 |
| 20260504182516 | 62 | 225 | 9.0 | 23.0 | 0.00 | 0.00 | 0.00 | 30 | 1012.6 |
| 20260504181516 | 64 | 135 | 6.0 | 16.0 | 0.00 | 0.00 | 0.00 | 29 | 1012.9 |
| 20260504180536 | 64 | 90 | 3.0 | 8.0 | 0.00 | 0.00 | 0.00 | 26 | 1012.6 |
| 20260504175536 | 65 | 90 | 5.0 | 10.0 | 0.00 | 0.00 | 0.00 | 29 | 1012.6 |
| 20260504174515 | 66 | 68 | 5.0 | 8.0 | 0.00 | 0.00 | 0.00 | 27 | 1013.0 |
| 20260504173536 | 68 | 45 | 3.0 | 5.0 | 0.00 | 0.00 | 0.00 | 25 | 1013.1 |
| 20260504172516 | 68 | 45 | 4.0 | 9.0 | 0.00 | 0.00 | 0.00 | 24 | 1013.6 |
| 20260504171516 | 69 | 45 | 3.0 | 6.0 | 0.00 | 0.00 | 0.00 | 23 | 1013.7 |
| 20260504170537 | 69 | 338 | 6.0 | 10.0 | 0.00 | 0.00 | 0.00 | 24 | 1013.8 |
| 20260504150518 | 64 | 203 | 3.0 | 5.0 | 0.00 | 0.00 | 0.00 | 27 | 1014.1 |
| 20260504140558 | 59 | 225 | 2.0 | 5.0 | 0.00 | 0.00 | 0.00 | 29 | 1014.3 |
| 20260504130517 | 56 | 203 | 3.0 | 8.0 | 0.00 | 0.00 | 0.00 | 29 | 1013.9 |
| 20260504110517 | 43 | 0.0 | 2.0 | 0.00 | 0.00 | 0.00 | 48 | 1012.0 | |
| 20260504100558 | 45 | 0.0 | 3.0 | 0.00 | 0.00 | 0.00 | 46 | 1013.2 | |
| 20260504081538 | 49 | 0.0 | 2.0 | 0.00 | 0.00 | 0.00 | 38 | 1014.3 | |
| 20260504080517 | 51 | 45 | 1.0 | 3.0 | 0.00 | 0.00 | 0.00 | 37 | 1014.4 |
| 20260504050516 | 58 | 203 | 3.0 | 7.0 | 0.00 | 0.00 | 0.00 | 32 | 1016.2 |
| 20260504045516 | 57 | 203 | 1.0 | 5.0 | 0.00 | 0.00 | 0.00 | 34 | 1015.9 |
| 20260504044516 | 57 | 203 | 2.0 | 4.0 | 0.00 | 0.00 | 0.00 | 33 | 1016.0 |
| 20260504043516 | 58 | 203 | 3.0 | 6.0 | 0.00 | 0.00 | 0.00 | 33 | 1016.4 |
| 20260504042536 | 57 | 180 | 2.0 | 9.0 | 0.00 | 0.00 | 0.00 | 33 | 1016.2 |
| 20260504041516 | 58 | 225 | 2.0 | 4.0 | 0.00 | 0.00 | 0.00 | 33 | 1016.6 |
| 20260504040517 | 59 | 203 | 3.0 | 9.0 | 0.00 | 0.00 | 0.00 | 32 | 1016.3 |
| 20260504035516 | 58 | 203 | 4.0 | 8.0 | 0.00 | 0.00 | 0.00 | 33 | 1016.3 |
| 20260504034516 | 55 | 23 | 2.0 | 4.0 | 0.00 | 0.00 | 0.00 | 38 | 1015.7 |
| 20260504033536 | 55 | 0.0 | 0.0 | 0.00 | 0.00 | 0.00 | 39 | 1015.7 | |
| 20260504032516 | 55 | 23 | 2.0 | 3.0 | 0.00 | 0.00 | 0.00 | 40 | 1015.8 |
| 20260504031516 | 56 | 0.0 | 2.0 | 0.00 | 0.00 | 0.00 | 38 | 1015.7 | |
| 20260504030517 | 57 | 0.0 | 1.0 | 0.00 | 0.00 | 0.00 | 37 | 1015.8 | |
| 20260504025517 | 57 | 0.0 | 1.0 | 0.00 | 0.00 | 0.00 | 36 | 1015.6 | |
| 20260504024517 | 58 | 0.0 | 0.0 | 0.00 | 0.00 | 0.00 | 36 | 1015.6 | |
| 20260504023516 | 58 | 0.0 | 1.0 | 0.00 | 0.00 | 0.00 | 35 | 1015.7 |